User: anonymous   Login
Location: Brivio
(45.7333°N, 9.4500°E)
Time: 01:57:17
(UTC+00:00)
Language:

Cosmos 1605 Rocket - Orbit

View from above orbital plane
View from above orbital plane
View from above satellite
View from above satellite

Ground track
Ground track

The orbit data is extracted from the following two-line orbital elements,

1 15360U 84109B   19341.85476203 +.00000049 +00000-0 +33619-4 0  9999
2 15360 082.9401 097.3594 0042166 047.8386 312.6340 13.76768929765660
Epoch (UTC): 07 December 2019 20:30:51
Eccentricity: 0.0042166
inclination: 82.9401°
perigee height: 944 km
apogee height: 1006 km
right ascension of ascending node: 97.3594°
argument of perigee: 47.8386°
revolutions per day: 13.76768929
mean anomaly at epoch: 312.6340°
orbit number at epoch: 76566

The dashed part of the orbit path shows where the satellite is in the earth's shadow,  

DLR